Total_Precipitation_Accumulation
0.98 0.95 0.95 0.94 0.96 0.94 0.88 0.87 0.88 0.95 1.00 1.03 1.01 0.97 0.91 0.87 0.87 0.88 0.83 0.91 0.98 1.02 1.03 1.12 1.19 1.19 1.21 1.25 1.34 1.43 1.58 1.70 1.55 1.30 1.25 1.29 1.35 1.31 1.13 0.94 0.79 0.73 0.62
1.03 1.11 1.17 1.20 1.21 1.13 0.97 0.91 0.95 1.01 1.08 1.11 1.09 1.06 0.96 0.93 1.02 1.03 1.02 1.09 1.12 1.08 1.06 1.08 1.03 1.05 1.15 1.16 1.22 1.25 1.35 1.55 1.50 1.41 1.42 1.45 1.47 1.41 1.31 1.12 0.91 0.80 0.75
1.24 1.45 1.60 1.63 1.46 1.29 1.18 1.06 1.08 1.11 1.16 1.21 1.24 1.28 1.26 1.21 1.17 1.17 1.24 1.22 1.11 1.01 1.01 0.99 0.94 0.96 0.99 1.07 1.15 1.11 1.11 1.23 1.38 1.43 1.51 1.60 1.65 1.54 1.36 1.22 1.09 1.00 0.79
1.06 1.33 1.50 1.59 1.46 1.37 1.31 1.18 1.12 1.13 1.18 1.21 1.26 1.42 1.53 1.51 1.47 1.38 1.30 1.22 1.11 1.03 0.94 0.86 0.84 0.87 0.91 0.97 1.05 1.08 1.09 1.18 1.31 1.39 1.53 1.73 1.75 1.77 1.65 1.41 1.30 1.23 0.97
0.83 0.97 1.16 1.35 1.24 1.09 1.05 1.01 0.99 1.05 1.15 1.36 1.47 1.51 1.69 1.78 1.65 1.59 1.46 1.35 1.28 1.12 0.98 0.88 0.81 0.78 0.81 0.87 0.85 0.91 1.00 1.08 1.10 1.19 1.32 1.54 1.66 1.77 1.72 1.52 1.37 1.38 1.24
0.83 0.92 1.05 1.15 1.06 0.92 0.81 0.79 0.84 0.93 1.05 1.19 1.33 1.37 1.38 1.29 1.39 1.36 1.25 1.21 1.21 1.11 1.02 0.94 0.82 0.71 0.70 0.68 0.64 0.68 0.77 0.82 0.91 1.05 1.11 1.30 1.50 1.60 1.73 1.79 1.65 1.50 1.43
0.97 0.98 1.03 1.10 1.07 0.97 0.82 0.79 0.82 0.89 1.00 1.09 1.16 1.20 1.16 1.17 1.12 0.99 0.94 0.92 0.96 0.96 0.98 0.97 0.78 0.67 0.73 0.70 0.68 0.63 0.62 0.65 0.72 0.92 1.03 1.10 1.33 1.53 1.72 1.88 1.88 1.81 1.69
0.99 1.04 1.16 1.25 1.20 1.12 1.04 0.99 1.02 1.05 1.08 1.08 1.09 1.11 1.16 1.13 1.02 0.87 0.85 0.80 0.85 0.89 0.94 0.98 0.96 0.89 0.88 0.89 0.85 0.76 0.67 0.65 0.69 0.73 0.80 0.96 1.23 1.60 1.80 1.84 1.96 1.98 1.91
1.14 1.20 1.25 1.36 1.37 1.34 1.35 1.37 1.35 1.31 1.20 1.16 1.17 1.19 1.19 1.19 1.09 0.91 0.86 0.82 0.91 0.97 1.00 1.00 1.00 0.94 0.94 0.84 0.80 0.79 0.77 0.77 0.72 0.73 0.74 0.83 0.99 1.24 1.62 1.74 1.78 1.73 1.65
1.28 1.39 1.42 1.55 1.60 1.53 1.56 1.63 1.64 1.65 1.57 1.52 1.41 1.35 1.31 1.28 1.19 0.94 0.90 0.88 0.93 0.99 1.06 1.02 0.92 0.83 0.78 0.71 0.70 0.77 0.74 0.73 0.79 0.78 0.74 0.71 0.72 0.87 1.16 1.38 1.44 1.44 1.32
1.27 1.40 1.51 1.67 1.79 1.88 2.02 2.08 2.02 1.95 1.89 1.78 1.60 1.52 1.53 1.53 1.39 1.03 0.91 0.90 0.95 1.05 1.07 1.05 0.96 0.85 0.72 0.68 0.69 0.75 0.77 0.77 0.85 0.87 0.83 0.80 0.81 0.84 0.92 1.09 1.27 1.34 1.26
1.21 1.38 1.62 1.79 1.82 1.87 2.12 2.22 2.17 2.07 1.93 1.80 1.68 1.54 1.48 1.46 1.31 1.07 0.90 0.92 1.01 1.10 1.10 1.08 1.08 0.92 0.75 0.71 0.68 0.67 0.69 0.66 0.70 0.78 0.76 0.73 0.74 0.75 0.79 0.93 1.12 1.23 1.29
1.32 1.48 1.69 1.85 1.98 2.06 2.12 2.11 2.08 2.04 1.95 1.81 1.71 1.61 1.59 1.64 1.55 1.19 1.01 1.01 1.05 1.04 1.05 1.06 1.00 0.89 0.74 0.65 0.66 0.65 0.60 0.58 0.65 0.72 0.73 0.66 0.63 0.68 0.79 0.94 1.08 1.20 1.24
1.24 1.34 1.49 1.61 1.68 1.78 1.92 1.89 1.81 1.80 1.82 1.78 1.72 1.64 1.59 1.60 1.58 1.35 1.16 1.14 1.13 1.11 1.05 1.02 0.92 0.87 0.76 0.71 0.72 0.66 0.61 0.67 0.74 0.76 0.79 0.80 0.78 0.81 0.85 0.91 1.00 1.09 1.15
1.12 1.15 1.24 1.33 1.44 1.57 1.65 1.70 1.65 1.61 1.52 1.53 1.55 1.56 1.48 1.45 1.47 1.34 1.23 1.29 1.35 1.35 1.29 1.24 1.15 1.06 0.94 0.86 0.85 0.87 0.88 0.93 0.91 0.90 0.94 0.99 0.97 0.91 0.89 0.93 1.05 1.08 1.04
1.17 1.13 1.13 1.17 1.25 1.32 1.41 1.41 1.33 1.21 1.12 1.06 1.04 1.06 1.04 1.06 1.15 1.09 1.03 1.10 1.19 1.25 1.22 1.18 1.16 1.10 1.02 1.02 1.05 1.07 1.05 1.06 1.03 1.04 1.06 1.09 1.10 1.02 0.94 0.93 1.03 1.08 1.02
1.27 1.20 1.16 1.10 1.13 1.20 1.28 1.34 1.33 1.16 0.98 0.85 0.77 0.74 0.74 0.80 0.89 0.91 0.93 1.02 1.11 1.20 1.19 1.20 1.18 1.16 1.10 1.08 1.10 1.10 1.07 1.07 1.12 1.13 1.14 1.14 1.19 1.18 1.14 1.08 1.05 1.10 1.08
1.27 1.21 1.15 1.11 1.07 1.10 1.14 1.17 1.25 1.31 1.21 1.03 0.83 0.68 0.63 0.63 0.68 0.78 0.88 1.00 1.12 1.16 1.15 1.19 1.16 1.14 1.12 1.09 1.06 1.08 1.09 1.12 1.13 1.12 1.15 1.18 1.24 1.25 1.26 1.18 1.10 1.07 1.09
1.08 1.05 1.01 1.03 1.05 1.04 1.07 1.10 1.10 1.18 1.18 1.13 0.99 0.81 0.70 0.63 0.63 0.73 0.78 0.85 1.03 1.09 1.09 1.07 1.03 0.98 0.97 0.98 0.98 0.97 0.97 0.98 1.01 1.07 1.08 1.08 1.14 1.13 1.09 1.06 1.06 1.06 1.07
1.04 0.98 0.93 0.95 1.00 1.01 1.03 1.06 1.04 1.10 1.11 1.12 1.03 0.86 0.73 0.62 0.63 0.68 0.73 0.86 1.02 1.05 1.00 0.95 0.93 0.88 0.88 0.90 0.92 0.91 0.91 0.93 0.98 1.06 1.07 1.06 1.07 1.05 1.00 0.99 1.05 1.07 1.05
1.02 0.93 0.81 0.80 0.85 0.91 0.95 0.96 0.95 0.98 0.99 1.02 0.93 0.73 0.61 0.57 0.64 0.71 0.80 0.92 1.02 0.98 0.93 0.89 0.88 0.83 0.81 0.82 0.83 0.85 0.89 0.94 0.98 1.03 1.07 1.09 1.12 1.08 1.02 1.02 1.05 1.11 1.11
1.05 0.97 0.83 0.72 0.70 0.76 0.82 0.86 0.89 0.89 0.89 0.90 0.82 0.62 0.52 0.50 0.57 0.66 0.74 0.84 0.89 0.89 0.87 0.86 0.82 0.75 0.75 0.77 0.80 0.87 0.91 0.93 0.98 1.05 1.07 1.10 1.15 1.10 1.09 1.08 1.07 1.11 1.17
0.95 0.89 0.79 0.62 0.60 0.65 0.73 0.83 0.83 0.79 0.81 0.81 0.72 0.60 0.54 0.56 0.58 0.65 0.73 0.76 0.79 0.83 0.82 0.78 0.72 0.69 0.69 0.71 0.74 0.81 0.88 0.93 0.94 0.98 1.02 1.05 1.10 1.10 1.12 1.11 1.07 1.11 1.14
0.78 0.79 0.75 0.57 0.53 0.66 0.75 0.81 0.79 0.72 0.74 0.72 0.63 0.59 0.56 0.60 0.62 0.64 0.67 0.70 0.73 0.73 0.73 0.71 0.64 0.60 0.60 0.64 0.69 0.71 0.74 0.77 0.78 0.84 0.87 0.93 0.98 1.03 1.06 1.06 1.05 1.06 1.11
0.72 0.71 0.74 0.63 0.54 0.63 0.73 0.77 0.75 0.69 0.65 0.59 0.54 0.56 0.57 0.56 0.59 0.63 0.66 0.72 0.72 0.69 0.65 0.62 0.63 0.64 0.63 0.64 0.67 0.69 0.70 0.64 0.62 0.65 0.71 0.79 0.83 0.91 0.94 0.92 0.95 1.01 1.08
0.70 0.69 0.72 0.69 0.62 0.63 0.70 0.74 0.72 0.64 0.58 0.53 0.51 0.53 0.56 0.57 0.59 0.61 0.62 0.64 0.66 0.68 0.66 0.65 0.63 0.61 0.61 0.60 0.56 0.56 0.52 0.47 0.46 0.52 0.58 0.65 0.72 0.81 0.84 0.84 0.83 0.90 0.98